User: anonymous   Login
Location: *
(47.7167°N, 1.7333°W)
Time: 13:46:38
(UTC+00:00)
Language:

Mayak - Orbit

View from above orbital plane
View from above orbital plane
View from above satellite
View from above satellite

Ground track
Ground track

The orbit data is extracted from the following two-line orbital elements,

1 42830U 17042F   20192.09407042  .00000573  00000-0  61319-4 0  9990
2 42830  97.5252  74.3087 0013353 197.8128 162.2626 14.92257967162735
Epoch (UTC): 10 July 2020 02:15:27
Eccentricity: 0.0013353
inclination: 97.5252°
perigee height: 581 km
apogee height: 600 km
right ascension of ascending node: 74.3087°
argument of perigee: 197.8128°
revolutions per day: 14.92257967
mean anomaly at epoch: 162.2626°
orbit number at epoch: 16273

The dashed part of the orbit path shows where the satellite is in the earth's shadow,  

DLR